[[{"header":{"parameterUnit":"m.s-1","parameterCategory":1,"la1":30.2991,"la2":30.254,"lo1":-89.0895,"lo2":-89.0444,"dy":0.0017,"dx":0.0017,"nx":28,"ny":28,"refTime":"2024-03-15T21:00:00:Z","depth":0,"parameterNumber":2,"parameterNumberName":"U-component_of_WINDS"},"data":[0,0,0,0,0,0,0,0,0,0,0,0,0,0,0,0,0,0,0,0,0,0,0,0,0,0,0,0,0,0,0,0,0,0,0,0,0,0,0,0,0,0,0,0,0,0,0,0,0,0,0,0,0,0,0,0,0,0,-1.6625,-1.6623,0,-1.6484,-1.6482,-1.6481,-1.6391,-1.639,-1.639,-1.6389,-1.6244,-1.6241,-1.6237,0,0,0,0,0,0,0,0,0,0,0,0,0,-1.6815,-1.6812,-1.6625,-1.6623,-1.6621,-1.6484,-1.6482,-1.648,-1.6391,-1.639,-1.6389,-1.6389,-1.6245,-1.6241,-1.6237,0,0,0,0,0,0,0,0,0,0,0,0,0,-1.6709,-1.6811,-1.6625,-1.656,-1.6553,-1.6485,-1.6482,-1.648,-1.6391,-1.639,-1.6389,-1.6388,-1.6246,-1.6241,-1.6237,-1.6222,0,0,-1.6221,-1.6219,0,0,0,0,0,0,0,0,-1.6715,-1.6702,-1.6571,-1.6564,-1.6556,-1.6454,-1.6496,-1.6393,-1.6391,-1.6452,-1.6389,-1.6388,-1.6314,-1.6304,-1.6279,-1.6215,-1.6209,-1.6221,-1.6218,-1.6215,-1.6214,0,0,0,0,0,0,0,-1.6723,-1.6708,-1.6569,-1.6569,-1.656,-1.6538,-1.6522,-1.6476,-1.639,-1.6447,-1.644,-1.6425,-1.631,-1.6284,-1.6275,-1.6207,-1.6221,-1.6216,-1.6213,-1.6211,-1.6124,-1.6125,0,0,0,0,0,0,-1.674,-1.6714,-1.6573,-1.6565,-1.6635,-1.6535,-1.6517,-1.6488,-1.639,-1.6374,-1.6426,-1.6421,-1.6293,-1.6281,-1.627,-1.6246,-1.6216,-1.6211,-1.6208,-1.6123,-1.6124,-1.6125,0,0,0,0,0,0,-1.6745,-1.6729,-1.6579,-1.6638,-1.6617,-1.6532,-1.65,-1.6485,-1.6459,-1.6374,-1.6358,-1.6415,-1.6292,-1.6277,-1.6235,-1.624,-1.6209,-1.6204,-1.6123,-1.6124,-1.6125,-1.62,0,0,0,0,0,0,-1.6751,-1.6731,-1.6724,-1.6638,-1.6614,-1.6547,-1.65,-1.6483,-1.6451,-1.6444,-1.636,-1.6345,-1.629,-1.6243,-1.623,-1.6232,-1.62,-1.6122,-1.6123,-1.6124,-1.6196,-1.6203,-1.6209,0,0,0,0,0,-1.6758,-1.6751,-1.6725,-1.6708,-1.6604,-1.6547,-1.6533,-1.6471,-1.6452,-1.6445,-1.639,-1.6348,-1.6242,-1.6239,-1.6224,-1.6225,-1.6121,-1.6123,-1.6124,-1.6193,-1.6202,-1.6209,0,0,0,0,0,0,-1.6839,-1.6738,-1.6708,-1.6673,-1.662,-1.6532,-1.6521,-1.6482,-1.6432,-1.6427,-1.6352,-1.6334,-1.6299,-1.6258,-1.6257,-1.6206,-1.6176,-1.6175,-1.6234,-1.6242,-1.6248,-1.6258,-1.6196,0,0,0,0,0,-1.6853,-1.6815,-1.6729,-1.6706,-1.6681,-1.6606,-1.6579,-1.6536,-1.6477,-1.6454,-1.6396,-1.634,-1.6294,-1.6266,-1.6219,-1.619,-1.6171,-1.6184,-1.619,-1.6196,-1.6195,-1.6177,-1.6182,-1.613,-1.613,-1.613,0,0,-1.6881,-1.6821,-1.6802,-1.6721,-1.6675,-1.6637,-1.6588,-1.655,-1.6521,-1.6448,-1.6404,-1.6361,-1.6293,-1.6258,-1.624,-1.6223,-1.6205,-1.6198,-1.6203,-1.6199,-1.6179,-1.6184,-1.6189,-1.6131,-1.6131,-1.6131,0,0,-1.6913,-1.6864,-1.684,-1.6795,-1.6725,-1.6676,-1.667,-1.6589,-1.6557,-1.6513,-1.6457,-1.6422,-1.6345,-1.6299,-1.6266,-1.6283,-1.6242,-1.627,-1.6303,-1.6286,-1.629,-1.6294,-1.6299,-1.6303,-1.627,-1.627,-1.627,0,-1.6957,-1.6898,-1.6833,-1.6798,-1.6764,-1.6697,-1.6672,-1.6631,-1.655,-1.6529,-1.6511,-1.6413,-1.6363,-1.6317,-1.6321,-1.6296,-1.6288,-1.6279,-1.6295,-1.6298,-1.63,-1.6305,-1.6307,-1.6274,-1.6273,-1.6273,-1.6272,0,-1.6955,-1.6916,-1.6904,-1.6828,-1.6793,-1.6764,-1.6694,-1.6667,-1.6627,-1.658,-1.6536,-1.6474,-1.6414,-1.6399,-1.636,-1.6348,-1.6339,-1.6309,-1.6278,-1.631,-1.6313,-1.6314,-1.6279,-1.6278,-1.6277,-1.6276,0,0,-1.7033,-1.6922,-1.6919,-1.6884,-1.6803,-1.6771,-1.6739,-1.6681,-1.6659,-1.6606,-1.6577,-1.6514,-1.6486,-1.6448,-1.6403,-1.6389,-1.6407,-1.6361,-1.6358,-1.6371,-1.639,-1.6412,-1.6416,-1.638,-1.638,-1.638,-1.6395,0,-1.7053,-1.6992,-1.6933,-1.6893,-1.6856,-1.6792,-1.6764,-1.6712,-1.6667,-1.6629,-1.6579,-1.6535,-1.6502,-1.6479,-1.6462,-1.6408,-1.6409,-1.6406,-1.6352,-1.6351,-1.637,-1.6417,-1.6441,-1.6458,-1.6396,-1.6396,-1.6396,0,-1.7068,-1.7018,-1.6975,-1.6898,-1.688,-1.6856,-1.6798,-1.6763,-1.6702,-1.667,-1.663,-1.6582,-1.6546,-1.6519,-1.6468,-1.6467,-1.6441,-1.6412,-1.6411,-1.6403,-1.6375,-1.641,-1.6462,-1.6465,-1.6398,-1.6398,-1.6397,0,-1.7129,-1.7051,-1.7015,-1.6987,-1.6897,-1.6882,-1.6844,-1.6782,-1.6751,-1.6701,-1.668,-1.6626,-1.6596,-1.6555,-1.6495,-1.6481,-1.645,-1.6418,-1.6422,-1.6424,-1.6418,-1.6419,-1.6466,-1.6402,-1.6402,-1.6402,-1.6402,0,-1.7157,-1.7133,-1.7042,-1.702,-1.6992,-1.6924,-1.6898,-1.6853,-1.68,-1.6768,-1.671,-1.6681,-1.6603,-1.6565,-1.6518,-1.6483,-1.647,-1.6443,-1.6431,-1.6448,-1.6451,-1.643,-1.6427,-1.6403,-1.6403,-1.6403,-1.6403,0,-1.7221,-1.7159,-1.7115,-1.7034,-1.7013,-1.6996,-1.6925,-1.6902,-1.6854,-1.6815,-1.6802,-1.6727,-1.6679,-1.6615,-1.6548,-1.6516,-1.6487,-1.6467,-1.6508,-1.65,-1.6508,-1.6508,-1.6542,-1.6543,-1.648,-1.6481,-1.6482,0,-1.7243,-1.7223,-1.7139,-1.7114,-1.7078,-1.7038,-1.7006,-1.6939,-1.6909,-1.6839,-1.6824,-1.6772,-1.6727,-1.6655,-1.6594,-1.6543,-1.6521,-1.6537,-1.6513,-1.6531,-1.6521,-1.6523,-1.6521,-1.6543,-1.6544,-1.6545,-1.6545,0,-1.7288,-1.7259,-1.7215,-1.7161,-1.7126,-1.708,-1.7031,-1.7014,-1.6937,-1.6906,-1.6857,-1.6822,-1.6754,-1.6704,-1.6644,-1.6604,-1.6562,-1.6553,-1.6552,-1.6569,-1.6593,-1.658,-1.6523,-1.6553,-1.6552,-1.6551,-1.6551,-1.6551,-1.7331,-1.7311,-1.7249,-1.7203,-1.716,-1.7116,-1.709,-1.704,-1.6998,-1.6937,-1.69,-1.6853,-1.6794,-1.671,-1.6672,-1.6634,-1.6617,-1.6615,-1.6614,-1.6614,-1.662,-1.66,-1.6623,-1.6623,-1.6623,-1.6622,-1.6622,0,-1.7373,-1.7331,-1.7289,-1.7224,-1.7188,-1.7152,-1.7097,-1.7069,-1.7028,-1.6976,-1.6934,-1.6878,-1.6829,-1.6765,-1.6712,-1.6694,-1.6673,-1.6682,-1.6683,-1.6674,-1.6638,-1.6645,-1.67,-1.67,-1.67,-1.67,-1.67,-1.67,-1.7391,-1.7355,-1.7318,-1.7261,-1.7218,-1.7172,-1.7143,-1.7103,-1.7061,-1.7002,-1.6961,-1.692,-1.6863,-1.6806,-1.6759,-1.6742,-1.6725,-1.674,-1.6716,-1.6684,-1.6677,-1.667,-1.6676,-1.6737,-1.6737,-1.6755,-1.6755,-1.6755]},{"header":{"parameterUnit":"m.s-1","parameterCategory":1,"la1":30.2991,"la2":30.254,"lo1":-89.0895,"lo2":-89.0444,"dy":0.0017,"dx":0.0017,"nx":28,"ny":28,"refTime":"2024-03-15T21:00:00:Z","depth":0,"parameterNumber":3,"parameterNumberName":"V-component_of_WINDS"},"data":[0,0,0,0,0,0,0,0,0,0,0,0,0,0,0,0,0,0,0,0,0,0,0,0,0,0,0,0,0,0,0,0,0,0,0,0,0,0,0,0,0,0,0,0,0,0,0,0,0,0,0,0,0,0,0,0,0,0,-0.8962,-0.896,0,-0.8814,-0.8812,-0.881,-0.8723,-0.8722,-0.8722,-0.8721,-0.8565,-0.8561,-0.8557,0,0,0,0,0,0,0,0,0,0,0,0,0,-0.9166,-0.9163,-0.8962,-0.896,-0.8959,-0.8814,-0.8812,-0.881,-0.8723,-0.8722,-0.8722,-0.8721,-0.8566,-0.8562,-0.8557,0,0,0,0,0,0,0,0,0,0,0,0,0,-0.9054,-0.9162,-0.8963,-0.8898,-0.889,-0.8814,-0.8812,-0.8809,-0.8723,-0.8722,-0.8722,-0.8721,-0.8568,-0.8562,-0.8556,-0.8532,0,0,-0.8539,-0.8536,0,0,0,0,0,0,0,0,-0.906,-0.9046,-0.8909,-0.8902,-0.8894,-0.8786,-0.8826,-0.8716,-0.8723,-0.8786,-0.8721,-0.8721,-0.8639,-0.8627,-0.86,-0.8525,-0.8518,-0.8538,-0.8535,-0.8532,-0.8531,0,0,0,0,0,0,0,-0.9068,-0.9052,-0.8903,-0.8907,-0.8898,-0.8875,-0.8858,-0.8805,-0.8717,-0.8781,-0.8774,-0.8758,-0.8634,-0.8606,-0.8596,-0.8516,-0.8539,-0.8533,-0.853,-0.8528,-0.8414,-0.8414,0,0,0,0,0,0,-0.9087,-0.9059,-0.8908,-0.8899,-0.8977,-0.8872,-0.8853,-0.8821,-0.8718,-0.8701,-0.8758,-0.8754,-0.8616,-0.8603,-0.859,-0.8556,-0.8532,-0.8527,-0.8524,-0.8413,-0.8414,-0.8414,0,0,0,0,0,0,-0.9092,-0.9074,-0.8914,-0.8977,-0.8955,-0.8869,-0.8834,-0.8819,-0.879,-0.8701,-0.8684,-0.8746,-0.8615,-0.8598,-0.8548,-0.8549,-0.8525,-0.8519,-0.8413,-0.8413,-0.8414,-0.8486,0,0,0,0,0,0,-0.9098,-0.9076,-0.9067,-0.8978,-0.8952,-0.8875,-0.8834,-0.8816,-0.8781,-0.8774,-0.8685,-0.8669,-0.8613,-0.8557,-0.8542,-0.8541,-0.8515,-0.8412,-0.8413,-0.8414,-0.8483,-0.8489,-0.8494,0,0,0,0,0,-0.9105,-0.9092,-0.9067,-0.9049,-0.8939,-0.8876,-0.8861,-0.8798,-0.8782,-0.8771,-0.8714,-0.8672,-0.8551,-0.8552,-0.8535,-0.8532,-0.8412,-0.8413,-0.8414,-0.8481,-0.8488,-0.8494,0,0,0,0,0,0,-0.9181,-0.9079,-0.905,-0.9008,-0.8952,-0.8861,-0.8846,-0.8807,-0.8753,-0.8749,-0.8672,-0.8652,-0.861,-0.8565,-0.8568,-0.8503,-0.8477,-0.8474,-0.8534,-0.854,-0.8545,-0.8557,-0.851,0,0,0,0,0,-0.9194,-0.9153,-0.9064,-0.9035,-0.9009,-0.8933,-0.8903,-0.8859,-0.8797,-0.8772,-0.8711,-0.8651,-0.86,-0.8567,-0.8515,-0.8477,-0.8456,-0.8466,-0.8471,-0.8476,-0.8475,-0.8452,-0.8456,-0.8417,-0.8417,-0.8417,0,0,-0.9218,-0.9157,-0.9135,-0.9049,-0.9,-0.8959,-0.8913,-0.887,-0.8838,-0.8765,-0.8714,-0.8668,-0.8596,-0.8552,-0.8529,-0.8514,-0.8481,-0.8477,-0.8482,-0.8478,-0.8454,-0.8457,-0.8461,-0.8418,-0.8418,-0.8418,0,0,-0.9241,-0.919,-0.9161,-0.9114,-0.9041,-0.8991,-0.8984,-0.89,-0.8867,-0.8815,-0.876,-0.872,-0.8633,-0.8584,-0.8548,-0.8555,-0.8514,-0.8539,-0.8568,-0.8547,-0.855,-0.8552,-0.8555,-0.8557,-0.8538,-0.8539,-0.8539,0,-0.9279,-0.9215,-0.9151,-0.9112,-0.9076,-0.901,-0.898,-0.8936,-0.885,-0.8826,-0.881,-0.8701,-0.8647,-0.8592,-0.8594,-0.8566,-0.8556,-0.8549,-0.8555,-0.8557,-0.8558,-0.856,-0.8561,-0.8542,-0.8542,-0.8541,-0.8541,0,-0.9267,-0.9223,-0.9208,-0.9129,-0.9091,-0.9057,-0.8986,-0.8955,-0.8916,-0.8867,-0.8816,-0.875,-0.8683,-0.8667,-0.8627,-0.8606,-0.8598,-0.857,-0.8542,-0.8566,-0.8567,-0.8567,-0.8547,-0.8546,-0.8545,-0.8544,0,0,-0.9332,-0.9219,-0.9215,-0.9179,-0.9095,-0.9059,-0.9022,-0.8959,-0.8934,-0.8877,-0.8844,-0.8772,-0.8746,-0.8705,-0.8659,-0.864,-0.8651,-0.8614,-0.8611,-0.8624,-0.8624,-0.8647,-0.8649,-0.8624,-0.8624,-0.8624,-0.8631,0,-0.9343,-0.9274,-0.9216,-0.9169,-0.9128,-0.9066,-0.9033,-0.8978,-0.8931,-0.8889,-0.8837,-0.8788,-0.8757,-0.8732,-0.8711,-0.8654,-0.865,-0.8653,-0.8592,-0.859,-0.8612,-0.8649,-0.8672,-0.8682,-0.863,-0.863,-0.863,0,-0.9346,-0.9294,-0.9244,-0.9165,-0.9146,-0.9118,-0.9056,-0.9017,-0.8953,-0.892,-0.8876,-0.8828,-0.8785,-0.8762,-0.8702,-0.8705,-0.8677,-0.8645,-0.8644,-0.8636,-0.8612,-0.8642,-0.8683,-0.8685,-0.863,-0.863,-0.863,0,-0.94,-0.9317,-0.9276,-0.9247,-0.9154,-0.9136,-0.9097,-0.9032,-0.8999,-0.8944,-0.8922,-0.8862,-0.883,-0.8785,-0.8723,-0.8711,-0.8669,-0.864,-0.864,-0.8642,-0.8634,-0.8636,-0.8672,-0.8616,-0.8616,-0.8616,-0.8616,0,-0.9418,-0.939,-0.93,-0.9275,-0.9241,-0.9174,-0.9142,-0.9096,-0.904,-0.9005,-0.8946,-0.8914,-0.8834,-0.8791,-0.8742,-0.87,-0.8686,-0.8658,-0.8645,-0.8663,-0.8667,-0.8643,-0.8641,-0.8616,-0.8616,-0.8616,-0.8616,0,-0.9473,-0.9411,-0.9363,-0.928,-0.9259,-0.9238,-0.9166,-0.9139,-0.909,-0.9046,-0.9032,-0.8955,-0.8902,-0.8836,-0.8761,-0.8728,-0.8692,-0.8672,-0.8714,-0.8707,-0.8711,-0.8712,-0.8734,-0.8733,-0.8678,-0.8679,-0.8679,0,-0.9488,-0.9466,-0.9381,-0.9355,-0.9317,-0.9274,-0.9241,-0.9173,-0.914,-0.9067,-0.9049,-0.8992,-0.8944,-0.8863,-0.8799,-0.8742,-0.8721,-0.8732,-0.8712,-0.8731,-0.8722,-0.8724,-0.8722,-0.8738,-0.8739,-0.8739,-0.874,0,-0.9524,-0.9495,-0.9449,-0.9394,-0.9356,-0.9308,-0.9257,-0.9238,-0.9161,-0.9126,-0.9073,-0.9036,-0.8961,-0.8906,-0.8841,-0.8799,-0.8757,-0.8747,-0.8744,-0.8763,-0.8789,-0.8775,-0.8729,-0.8747,-0.8746,-0.8746,-0.8745,-0.8745,-0.9559,-0.9537,-0.9475,-0.9426,-0.9382,-0.9336,-0.9308,-0.9256,-0.9211,-0.9147,-0.911,-0.9058,-0.8995,-0.8904,-0.8864,-0.8822,-0.8806,-0.8801,-0.88,-0.88,-0.8806,-0.8796,-0.8809,-0.8809,-0.8809,-0.8808,-0.8808,0,-0.9592,-0.9549,-0.9506,-0.9438,-0.94,-0.9366,-0.9309,-0.9279,-0.9235,-0.918,-0.9135,-0.9074,-0.9021,-0.8954,-0.8896,-0.8875,-0.8854,-0.8862,-0.8863,-0.8854,-0.8824,-0.8832,-0.888,-0.888,-0.888,-0.888,-0.888,-0.888,-0.9604,-0.9565,-0.9529,-0.9467,-0.9424,-0.9375,-0.9345,-0.9303,-0.9259,-0.9195,-0.9151,-0.9109,-0.9049,-0.8987,-0.8936,-0.8918,-0.8899,-0.8913,-0.8889,-0.8862,-0.8856,-0.885,-0.8857,-0.8909,-0.8909,-0.8922,-0.8922,-0.8923]}]]